Location: Unspecified
(0.0000°N, 0.0000°E)
Time: 06:51:43
(UTC+00:00)

COSMOS 2467 - Visible Passes

Search period start: 10 June 2023 00:00
Search period end: 20 June 2023 00:00
Orbit: 1492 x 1496 km, 82.5° (Epoch: 09 June)

Date Brightness Start Highest point End Pass type
(mag) Time Alt. Az. Time Alt. Az. Time Alt. Az.
10 Jun 8.1 20:08:23 10° NNE 20:14:00 35° NE 20:14:00 35° NE visible
10 Jun 9.1 22:06:03 10° NW 22:09:58 21° WNW 22:09:58 21° WNW visible
11 Jun 8.7 19:21:57 10° NE 19:25:35 16° ENE 19:25:35 16° ENE visible
11 Jun 8.0 21:15:05 10° NNW 21:21:33 48° NW 21:21:33 48° NW visible
12 Jun 7.4 20:25:38 10° N 20:33:10 64° NE 20:33:10 64° NE visible
12 Jun 9.6 22:27:30 10° WNW 22:29:08 12° W 22:29:08 12° W visible
13 Jun 8.0 19:37:35 10° NNE 19:44:50 32° E 19:44:50 32° E visible
13 Jun 8.6 21:34:03 10° NW 21:40:48 32° W 21:40:48 32° W visible
14 Jun 8.8 18:52:28 10° ENE 18:55:52 13° E 18:56:32 13° E visible
14 Jun 7.4 20:43:35 10° N 20:52:16 70° W 20:52:31 70° WSW visible
15 Jun 7.4 19:54:30 10° N 20:03:02 57° E 20:04:16 53° ESE visible
15 Jun 9.3 21:54:20 10° WNW 21:59:28 17° W 22:00:15 17° W visible
16 Jun 8.2 19:06:57 10° NE 19:13:48 26° E 19:16:04 23° ESE visible
16 Jun 8.3 21:02:14 10° NNW 21:10:12 40° W 21:12:03 36° WSW visible
17 Jun 7.3 20:12:11 10° N 20:20:58 85° W 20:23:55 48° S visible
18 Jun 7.6 19:23:30 10° NNE 19:31:44 46° E 19:35:51 29° SE visible
18 Jun 9.1 21:21:51 10° NW 21:28:09 22° W 21:31:51 17° SW visible
19 Jun 8.5 18:36:36 10° NE 18:42:30 20° E 18:47:51 11° SE visible
19 Jun 8.0 20:30:33 10° NNW 20:38:54 50° W 20:43:51 26° SSW visible
